Regional Weather Roundup
Issued by NWS

Home | Current Version | Previous Version | Text Only | Print | Product List | Glossary On
Versions: 1 2 3 4 5 6 7 8 9 10 11 12 13 14 15 16 17 18 19 20 21 22 23 24 25 26 27 28 29 30 31 32 33 34 35 36 37 38 39 40 41 42 43 44 45 46 47 48 49 50
988
ASUS44 KJAN 290403
RWRMS

MISSISSIPPI HOURLY WEATHER ROUNDUP
NATIONAL WEATHER SERVICE JACKSON MS
1100 PM CDT THU AUG 28 2014

NOTE: "FAIR: INDICATES FEW OR NO CLOUDS BELOW 12,000 FEET WITH NO
SIGNIFICANT WEATHER AND/OR OBSTRUCTIONS TO VISIBILITY.

MSZ001>002-007>008-010>013-018>021-025>028-034>036-290500-
NORTHWEST MISSISSIPPI

CITY           SKY/WX    TMP DP  RH WIND       PRES   REMARKS
CLARKSDALE     FAIR      73  70  88 CALM      29.96S
CLEVELAND      FAIR      77  68  74 S5        29.95R
GREENWOOD      CLEAR     73  69  87 SW3       29.97R
GREENVILLE     PTCLDY    77  70  79 S3        29.95R
GRENADA        FAIR      70  68  94 CALM      29.97S
OLIVE BRANCH   PTCLDY    79  75  89 CALM      29.98R
OXFORD         FAIR      72  68  88 CALM      29.99S
TUNICA         PTCLDY    73  68  83 CALM      29.97R
$$

MSZ003>006-009-014>017-022>024-029>033-037>039-290500-
NORTHEAST MISSISSIPPI

CITY           SKY/WX    TMP DP  RH WIND       PRES   REMARKS
BELMONT        FAIR      72  70  94 CALM      29.99S
COLUMBUS AFB   PTCLDY    71  65  81 VRB1      29.98R
CORINTH          N/A     72  68  88 CALM      29.97S FOG
GOLDN TRIANGLE CLEAR     75  63  64 S6        29.99R
STARKVILLE     FAIR      72  64  78 CALM      29.98S
TUPELO         CLEAR     75  68  78 CALM      29.97R
$$

MSZ040-058-290500-
CENTRAL MISSISSIPPI

CITY           SKY/WX    TMP DP  RH WIND       PRES   REMARKS
JACKSON INTL   PTCLDY    75  69  81 SE3       29.98R
JACKSON HAWKNS PTCLDY    78  69  73 CALM      29.98R
MERIDIAN KEY   CLEAR     71  68  90 CALM      29.99R
MERIDIAN NAS   MOCLDY    74  68  81 CALM      29.99R
RAYMOND        FAIR      73  68  83 MISG      29.98R HAZE
VICKSBURG      PTCLDY    73  71  93 CALM      29.96R
$$

MSZ059>079-290500-
SOUTH MISSISSIPPI

CITY           SKY/WX    TMP DP  RH WIND       PRES   REMARKS
BROOKHAVEN     FAIR      75  73  94 CALM      30.01R
COLUMBIA       FAIR      77  73  88 SE3       29.98S
HATTIESBURG    MOCLDY    77  72  84 CALM      29.99R
MCCOMB         CLOUDY    79  73  82 CALM      29.99R
NATCHEZ        MOCLDY    79  73  83 CALM      29.98S
PINE BELT      CLOUDY    75  70  83 CALM      30.01S
$$

MSZ080>082-290500-
COASTAL MISSISSIPPI

CITY           SKY/WX    TMP DP  RH WIND       PRES   REMARKS
BILOXI         PTCLDY    83  71  64 SE3       29.98R
PASCAGOULA     PTCLDY    72  71  97 CALM      29.99R FOG
GULFPORT       CLEAR     81  71  71 SE3       29.98R
$$



USA.gov is the U.S. government's official web portal to all federal, state and local government web resources and services.